ZAREMBO AK US current weather conditions

sailwx.info

Wind from 160 at 1 knots gusting 5

Air temperature 7.8° C
Dewpoint 7.8° C

Last reported at 2015-May-24 09:55 UTC.
Time now 2015-May-24 11:23 UTC

Location: N 56°18' W 132°51'.
View on Google Maps.

See reports from other nearby stations

  
Tides and Currents Weather Stations Pressure Air Temp Water Temp Dewpoint Dewpoint Depression Visibility Wind Speed Wind Dir Waves Ship Positions
date/time (UTC)wind fromknots sea level pressurealtimeterstation pressurevisibilityair tempwater tempwave heightnotes
2015-May-24 09:55 160 1 gusting 5 7.8
2015-May-24 08:55 171 2 gusting 5 7.8
2015-May-24 07:55 190 2 gusting 6 7.8
2015-May-24 06:55 164 1 gusting 6 8.3
2015-May-24 05:55 194 3 gusting 6 8.3
2015-May-24 04:55 197 4 gusting 6 8.9
2015-May-24 03:55 227 4 gusting 6 10.0
2015-May-24 02:55 186 4 gusting 6 12.2
2015-May-24 01:55 198 4 gusting 10 12.8
2015-May-24 00:55 217 5 gusting 10 15.6
2015-May-23 23:55 216 6 gusting 10 16.7
2015-May-23 22:55 217 6 gusting 9 18.3
2015-May-23 21:55 226 6 gusting 10 18.9
2015-May-23 20:55 222 4 gusting 9 17.2
2015-May-23 19:55 228 3 gusting 5 16.7
2015-May-23 18:55 267 0 gusting 7 16.1
2015-May-23 17:55 233 4 gusting 7 13.3
2015-May-23 16:55 196 2 gusting 5 12.2
2015-May-23 15:55 196 0 gusting 5 12.8
2015-May-23 14:55 226 3 gusting 5 10.0
2015-May-23 13:55 047 2 gusting 5 9.4
2015-May-23 12:55 239 0 gusting 5 8.3
2015-May-23 11:55 283 1 gusting 6 8.3
2015-May-23 10:55 340 0 gusting 3 11.7
2015-May-23 09:55 238 1 gusting 3 12.8
2015-May-23 08:55 319 0 gusting 2 14.4
2015-May-23 07:55 199 1 gusting 3 16.1
2015-May-23 06:55 357 1 gusting 3 16.1
2015-May-23 05:55 216 2 gusting 4 17.8
2015-May-23 04:55 357 2 gusting 5 19.4
2015-May-23 03:55 025 3 gusting 6 21.1
2015-May-23 02:55 338 1 gusting 7 23.9
2015-May-23 01:55 164 2 gusting 11 22.2
2015-May-23 00:55 189 6 gusting 9 23.9
2015-May-22 23:55 203 6 gusting 11 24.4
2015-May-22 22:55 210 6 gusting 10 25.0
2015-May-22 21:55 152 4 gusting 11 25.0
2015-May-22 20:55 122 3 gusting 9 24.4
2015-May-22 19:55 251 4 gusting 8 23.3
2015-May-22 18:55 269 3 gusting 7 22.8
2015-May-22 17:55 225 5 gusting 7 17.8
2015-May-22 16:55 246 2 gusting 4 18.3
2015-May-22 15:55 355 2 gusting 8 17.2
2015-May-22 14:55 217 1 gusting 6 12.8
2015-May-22 13:55 013 2 gusting 3 12.2
2015-May-22 12:55 294 0 gusting 3 10.0
2015-May-22 11:55 019 0 gusting 3 11.7